THORAD AGENA D DEB, 5519

Orbit data source: Space-Track

THORAD AGENA D DEB, 5519 is space debris in LEO originally from a launch on Tue, 30 Sep 1969 UTC launched from the Air Force Western Test Range (AFWTR). Debris objects in space refer to the collection of defunct objects orbiting the Earth. Examples of debris include non-operational satellites, rocket bodies, and fragments generated from explosions, collisions, or faulty payload assembly.

Loading next visibility...
Identifier
5519, 1969-082HY
Orbit
LEO
Country
Flag of USUS
Related business
Manufacturer
Unknown
Mission
Spacecraft
Bus & Motor
Unknown
Mass
Unknown
Launch date (UTC)
1969-09-30 (57 years ago)
Launch vehicle
Unknown
Launch site
Air Force Western Test Range (AFWTR)
Object type
Payload
Rocket body
Debris
Shape & HBR
Unknown shape, 0.1 m
Radar Cross Section
Small (<0.1 m²)

Expand to show TLE details & history
Last TLE update: 1 day ago

TLE from 1 day ago
0 THORAD AGENA D DEB
1 05519U 69082HY  26093.16800649  .00001455  00000-0  43802-3 0  9994
2 05519  70.0534 148.1347 0048086 320.8577  38.9079 14.43864382940267
Epoch: 2026-04-03T04:01Z
TLE epoch observation values (Epoch: 2026-04-03T04:01:55.760Z)
Latitude
-0.00001°
Longitude
-103.85365°
Altitude
721.533 km
Speed
7.509 km/s
True Right ascension
09h 52m 32s
True Declination
0° 00' 00"
Sunlit
Object was in full shadow at epoch
Visualization orbit readout
Latitude
Unknown
Longitude
Unknown
Altitude
Unknown
Speed
Unknown
Apparent Right ascension
Unknown
Apparent Declination
Unknown
Sunlit
N/A
Visualization observer readout
Local Sidereal Time
11:42:24
Azimuth
Unknown
Elevation
Unknown
Doppler factor
Unknown
Orbital elements
Apogee altitude
777.998 km
Perigee altitude
709.506 km
Semi-major axis
7,121.889 km
Eccentricity
0.00481
Inclination
70.0534°
RAAN
148.1347°
Arg. of periapsis
320.8577°
True anomaly
39.25561°
Mean anomaly
38.9079°
Eccentric anomaly
39.08159°
Mean motion
3.61119 °/min
Orbital period
99.69 mins
BSTAR
0.00043802
Loading maneuver chart data...
Computing Atmospheric mass density...

Documentation

Showing up to 5 results
|